Vorticity
18 19 13 29 62 50 58 55 12 -1 16 12 7 6 8 6 3 6 13 13 13 11 10 8 6 7 7 5 5 5 5 5 5 6 7 8 9 8 7 8 11 1 8 2
20 8 33 16 3 -1 4 3 9 12 5 14 9 7 10 13 13 12 8 6 6 6 7 8 6 5 5 4 2 4 7 7 7 9 9 8 5 6 6 8 5 3 2 4
30 24 13 10 47 -2 -5 1 6 11 2 9 12 7 8 10 8 8 8 7 6 5 4 4 3 2 4 5 6 8 9 8 8 8 7 6 6 6 9 7 2 5 5 15
12 14 44 -14 -7 -4 73 10 19 1 6 4 9 11 9 7 6 6 5 3 3 2 2 4 5 4 7 10 11 9 9 9 8 5 8 5 7 5 6 3 4 6 14 8
10 0 4 15 8 5 1 -2 -2 -0 4 -0 6 -0 -3 0 7 9 8 8 8 6 5 6 8 11 10 8 8 9 7 5 7 6 8 5 8 4 2 2 10 13 8 7
11 6 1 12 25 17 14 3 19 9 6 15 13 14 11 9 5 6 7 9 10 7 7 8 9 8 8 7 7 7 7 5 6 10 6 7 5 4 1 9 12 8 8 5
3 6 9 6 8 8 6 6 5 9 4 5 6 4 15 12 9 6 3 2 3 4 7 8 9 8 6 4 6 7 7 9 10 8 7 7 5 2 10 13 8 7 6 4
2 1 -1 -4 -0 12 8 9 10 9 11 5 10 5 2 4 5 7 7 6 10 10 11 9 5 3 7 8 8 10 11 7 6 8 6 4 4 11 14 7 7 6 2 1
9 9 3 10 3 2 9 10 5 5 9 11 16 15 -3 9 14 13 12 11 10 6 3 7 9 7 9 9 7 7 8 6 7 6 5 11 8 13 8 7 6 1 2 3
7 6 7 8 16 18 14 14 13 11 16 14 15 15 17 14 13 9 4 5 10 9 8 9 9 9 10 10 8 7 8 8 5 7 8 12 11 7 7 5 2 3 3 2
7 8 9 11 13 11 6 11 10 16 15 12 11 11 6 6 9 11 11 9 8 8 9 10 10 8 7 7 8 8 7 6 15 1 13 12 7 7 4 4 4 4 5 -1
7 13 7 11 10 17 9 11 5 8 9 8 8 7 8 10 8 6 6 8 10 9 8 7 7 8 5 7 9 9 11 9 4 13 11 6 6 3 5 4 3 1 1 0
5 3 10 12 12 9 8 7 11 9 12 17 15 5 8 5 5 6 4 5 6 8 6 6 8 7 7 13 12 9 7 5 13 10 6 3 3 4 3 3 3 2 -1 4
15 2 22 18 18 2 8 11 -1 10 9 7 8 5 5 6 3 4 4 5 7 6 5 8 10 15 11 6 6 8 7 10 11 6 5 3 5 4 1 5 4 -1 -1 5
16 18 18 9 4 2 15 11 19 13 2 10 2 5 6 6 4 4 5 7 7 6 5 12 10 9 4 6 8 8 8 14 7 6 3 5 4 0 2 5 5 -6 3 28
8 2 7 10 12 14 24 18 -4 5 10 -1 10 7 5 4 4 5 6 8 10 5 9 11 10 8 9 10 7 10 15 7 5 4 4 2 2 2 6 7 0 -3 22 37
10 5 7 15 17 20 -2 11 11 7 7 5 3 4 5 5 6 7 6 9 10 11 10 10 8 11 8 6 15 13 7 4 4 3 2 1 3 6 5 5 -0 12 40 26
14 19 17 23 -3 6 8 4 5 4 1 -3 -5 -2 5 8 6 7 11 13 12 12 9 8 11 8 8 17 9 7 4 2 4 1 2 4 6 7 0 6 5 39 30 21
22 9 4 6 7 3 1 3 -5 -3 -1 3 2 -1 0 9 13 12 11 13 11 7 9 10 7 15 11 8 6 4 2 3 1 3 3 7 7 2 4 4 37 34 21 21
12 8 2 -1 1 4 3 2 1 -2 -4 5 5 12 14 15 10 11 13 6 9 10 8 9 15 9 7 6 4 2 4 1 3 1 7 6 6 4 1 32 38 19 23 31
11 5 6 7 4 4 2 5 3 -2 8 17 13 14 15 7 9 12 11 9 7 9 16 10 8 8 7 4 2 4 3 5 2 7 6 6 2 2 26 41 17 24 29 31
7 9 14 16 16 14 13 11 11 15 17 14 13 11 6 10 13 11 9 8 14 10 9 7 9 5 3 4 4 3 4 3 6 5 5 -0 4 23 42 17 24 31 25 36
13 14 16 16 14 14 13 12 10 8 8 10 10 13 14 11 9 8 10 14 10 8 8 7 5 3 5 3 5 4 6 6 6 5 -4 8 19 42 20 23 32 21 34 35
8 8 8 8 7 8 8 9 10 12 13 13 11 9 7 8 9 16 12 8 9 8 5 4 5 5 3 3 5 7 6 6 6 -6 8 19 38 25 20 30 24 34 36 28
7 7 8 8 8 10 12 13 14 12 9 7 7 9 14 20 11 8 8 7 6 4 5 5 3 4 2 5 7 7 7 5 -4 3 20 35 32 16 28 24 33 35 32 20
13 11 11 13 13 11 10 8 8 10 12 16 19 15 9 8 8 6 7 5 6 4 3 4 3 4 6 6 9 5 4 -2 2 23 37 37 13 30 23 33 31 39 24 13
15 14 14 14 14 15 16 17 16 15 12 9 8 7 7 8 8 6 6 5 3 6 2 4 5 6 7 9 5 3 -2 2 27 39 34 10 30 24 31 29 42 29 15 9
Height
5574 5570 5566 5565 5564 5563 5562 5568 5574 5578 5584 5590 5599 5605 5611 5618 5625 5631 5638 5643 5647 5653 5659 5664 5667 5669 5671 5672 5673 5673 5672 5670 5668 5666 5663 5659 5655 5651 5647 5641 5636 5631 5624 5616
5569 5565 5569 5567 5567 5564 5567 5571 5576 5581 5589 5594 5601 5607 5614 5620 5626 5631 5636 5640 5645 5651 5656 5659 5662 5664 5665 5666 5666 5666 5664 5662 5660 5657 5654 5650 5646 5642 5637 5632 5626 5619 5612 5604
5570 5567 5567 5572 5569 5572 5575 5578 5581 5587 5595 5600 5604 5608 5615 5621 5625 5630 5634 5639 5643 5648 5652 5655 5657 5658 5659 5660 5659 5658 5657 5655 5652 5649 5645 5641 5637 5632 5627 5621 5615 5608 5600 5591
5571 5572 5574 5575 5576 5578 5576 5582 5587 5592 5596 5600 5605 5612 5617 5621 5625 5630 5634 5637 5642 5646 5648 5650 5652 5653 5653 5653 5652 5651 5649 5646 5643 5640 5636 5633 5628 5623 5617 5611 5604 5596 5587 5579
5573 5577 5579 5579 5581 5584 5588 5592 5594 5597 5600 5605 5610 5614 5618 5622 5626 5629 5632 5635 5639 5642 5644 5646 5647 5647 5646 5646 5644 5643 5641 5638 5635 5632 5628 5623 5618 5613 5607 5600 5592 5583 5575 5566
5577 5581 5582 5583 5583 5586 5589 5593 5596 5600 5604 5607 5611 5614 5617 5620 5623 5626 5629 5632 5635 5637 5639 5639 5639 5639 5639 5638 5637 5635 5633 5630 5627 5623 5618 5614 5609 5603 5596 5589 5580 5572 5563 5553
5581 5583 5586 5587 5587 5589 5593 5598 5598 5601 5605 5608 5611 5613 5616 5619 5622 5624 5627 5629 5631 5633 5633 5634 5634 5633 5632 5631 5629 5627 5624 5621 5618 5614 5609 5604 5599 5593 5585 5576 5569 5561 5552 5541
5583 5584 5587 5588 5590 5592 5593 5593 5595 5599 5602 5606 5609 5611 5614 5617 5619 5622 5624 5625 5627 5628 5628 5628 5628 5627 5626 5624 5622 5619 5616 5613 5609 5605 5600 5595 5588 5581 5574 5566 5558 5549 5540 5527
5583 5583 5584 5585 5587 5590 5591 5593 5595 5597 5599 5602 5605 5609 5612 5614 5616 5618 5620 5621 5622 5622 5623 5623 5622 5621 5619 5617 5614 5611 5608 5604 5600 5596 5590 5584 5577 5570 5562 5555 5546 5537 5526 5514
5580 5580 5581 5583 5585 5586 5589 5591 5593 5595 5597 5599 5602 5605 5608 5610 5612 5614 5615 5616 5617 5618 5618 5617 5615 5614 5612 5609 5607 5603 5599 5595 5591 5586 5580 5574 5567 5560 5552 5543 5534 5523 5512 5500
5577 5578 5580 5581 5582 5583 5586 5588 5591 5593 5595 5597 5600 5603 5605 5607 5609 5611 5612 5613 5613 5612 5611 5610 5608 5606 5604 5601 5598 5594 5590 5586 5581 5576 5570 5563 5556 5549 5540 5530 5520 5509 5496 5483
5574 5576 5577 5579 5581 5582 5584 5587 5590 5591 5593 5595 5598 5600 5602 5605 5606 5607 5607 5608 5607 5606 5605 5603 5601 5598 5595 5592 5589 5585 5581 5577 5572 5566 5560 5553 5546 5537 5527 5517 5504 5491 5478 5463
5571 5573 5574 5576 5579 5581 5583 5586 5588 5589 5591 5592 5595 5598 5600 5601 5602 5602 5602 5602 5601 5599 5598 5595 5593 5591 5587 5584 5580 5577 5572 5567 5562 5556 5550 5543 5536 5528 5518 5503 5488 5475 5461 5446
5568 5571 5571 5573 5576 5579 5581 5583 5585 5587 5588 5591 5593 5595 5597 5598 5598 5598 5597 5596 5594 5593 5591 5588 5586 5583 5579 5576 5572 5568 5563 5558 5552 5546 5539 5533 5524 5515 5504 5493 5481 5466 5447 5429
5566 5568 5569 5572 5574 5576 5578 5580 5582 5584 5586 5588 5590 5592 5593 5593 5593 5592 5591 5590 5588 5586 5584 5581 5578 5575 5571 5567 5563 5559 5554 5548 5542 5536 5530 5522 5512 5502 5490 5478 5464 5450 5433 5414
5564 5566 5568 5570 5571 5573 5575 5577 5579 5582 5584 5586 5587 5588 5588 5588 5587 5586 5585 5583 5581 5579 5576 5573 5570 5567 5563 5559 5555 5549 5544 5539 5533 5526 5518 5509 5499 5488 5477 5463 5448 5432 5414 5398
5560 5563 5564 5566 5568 5570 5573 5576 5578 5579 5581 5583 5583 5583 5583 5582 5580 5579 5577 5575 5573 5571 5568 5565 5562 5558 5554 5550 5545 5540 5535 5530 5523 5515 5507 5497 5486 5475 5461 5447 5432 5416 5398 5383
5556 5558 5560 5563 5565 5568 5570 5572 5574 5575 5576 5577 5577 5577 5576 5575 5574 5572 5570 5568 5565 5563 5560 5557 5553 5549 5545 5540 5536 5531 5525 5519 5512 5503 5494 5483 5472 5459 5446 5432 5416 5400 5386 5373
5552 5554 5557 5560 5562 5564 5566 5567 5569 5570 5571 5571 5571 5570 5569 5568 5566 5564 5562 5560 5557 5555 5552 5548 5544 5540 5536 5532 5527 5522 5515 5508 5500 5491 5481 5469 5457 5444 5431 5416 5400 5386 5375 5364
5550 5552 5553 5555 5557 5559 5561 5562 5563 5563 5564 5564 5564 5563 5561 5560 5558 5556 5554 5552 5549 5546 5542 5539 5535 5531 5528 5523 5518 5512 5504 5497 5488 5478 5467 5456 5443 5430 5414 5399 5386 5376 5365 5355
5546 5548 5550 5551 5553 5554 5554 5556 5556 5556 5556 5556 5555 5555 5553 5552 5550 5548 5545 5543 5540 5537 5533 5530 5527 5524 5519 5514 5508 5501 5493 5485 5475 5465 5453 5441 5428 5414 5400 5386 5375 5366 5356 5349
5541 5542 5544 5545 5545 5546 5547 5547 5548 5548 5548 5548 5547 5546 5545 5543 5541 5539 5537 5534 5531 5528 5525 5522 5519 5515 5509 5504 5497 5490 5481 5472 5462 5451 5439 5427 5413 5400 5386 5376 5366 5356 5349 5344
5534 5535 5536 5538 5539 5539 5540 5540 5540 5540 5540 5540 5539 5537 5536 5535 5533 5531 5528 5526 5523 5521 5517 5514 5510 5505 5499 5493 5486 5478 5469 5460 5448 5437 5424 5411 5398 5385 5375 5366 5357 5350 5344 5340
5528 5529 5530 5531 5532 5532 5532 5532 5532 5532 5532 5531 5530 5529 5528 5527 5524 5522 5520 5518 5515 5513 5509 5505 5500 5495 5489 5482 5474 5466 5456 5445 5434 5422 5409 5396 5384 5374 5365 5357 5349 5344 5340 5339
5521 5522 5523 5523 5524 5524 5524 5524 5524 5524 5524 5523 5522 5521 5520 5518 5516 5515 5513 5510 5508 5504 5500 5495 5490 5484 5478 5470 5461 5452 5442 5432 5420 5408 5394 5382 5373 5365 5356 5349 5343 5340 5338 5338
5513 5514 5514 5515 5516 5516 5516 5517 5517 5516 5516 5515 5514 5513 5512 5510 5509 5507 5505 5502 5499 5495 5490 5485 5480 5473 5465 5457 5447 5438 5428 5418 5404 5391 5380 5371 5363 5355 5348 5342 5339 5337 5337 5339
5505 5505 5506 5507 5508 5508 5508 5509 5509 5509 5509 5508 5507 5506 5505 5503 5501 5499 5496 5493 5489 5485 5480 5474 5467 5460 5452 5443 5433 5424 5413 5401 5389 5377 5368 5361 5353 5346 5341 5337 5335 5336 5338 5341